contact:dominique.lefevre@mio.osupytheas.fr, maurice.libes@osupytheas.fr
Project:EMSO Ligure-ouest http://www.emso-fr.org/EMSO-France
Sensor Aquadopp, line 13 Serial AQD14315 
DOI : "https://doi.org/10.17882/74513; https://doi.org/10.17882/83244" 
Title:EMSO Ligure Ouest : Data ligne ALBATROSS capteur AQUADOPP - deploiement 2021
Id,Date,Profondeur,Latitude,Longitude,X_East,Y_North,Z_Up,Amplitude_X,Amplitude_Y,Amplitude_Z,Batterie,SoundSpeed,Heading,Pitch,Roll,Pressure,Temperature,Speed,Direction
, , m, degrees North, degrees East, m.s-1, m.s-1,m.s-1, 1, 1, 1, Volt, m.s-1, degree, degree, degree, dbar, degree_C, m.s-1, degree
07,2021-11-10T21:30:00,1500.0,42.79,6.0312,0.027,-0.04,0.002,49.0,49.0,49.0,12.7,1504.1,129.8,-0.5,-0.5,1472.907,13.12,0.048,146.0
07,2021-11-10T22:00:00,1500.0,42.79,6.0312,0.023,-0.04,-0.001,50.0,50.0,48.0,12.6,1504.1,128.9,0.0,-0.3,1472.872,13.12,0.046,150.1
07,2021-11-10T22:30:00,1500.0,42.79,6.0312,0.032,-0.032,0.007,49.0,50.0,49.0,12.7,1504.1,135.5,-0.1,-0.4,1472.919,13.12,0.045,135.0
07,2021-11-10T23:00:00,1500.0,42.79,6.0312,0.03,-0.04,-0.002,48.0,50.0,50.0,12.7,1504.1,132.9,0.0,-0.4,1472.895,13.12,0.05,143.1
07,2021-11-10T23:30:00,1500.0,42.79,6.0312,0.021,-0.031,-0.022,49.0,51.0,50.0,12.7,1504.1,131.2,0.1,-0.2,1472.866,13.13,0.037,145.9
07,2021-11-11T00:00:00,1500.0,42.79,6.0312,0.024,-0.036,0.005,50.0,50.0,50.0,12.6,1504.1,140.0,0.0,-0.1,1472.895,13.13,0.043,146.3
07,2021-11-11T00:30:00,1500.0,42.79,6.0312,0.019,-0.032,-0.003,49.0,50.0,49.0,12.7,1504.1,140.6,0.0,-0.3,1472.879,13.13,0.037,149.3
07,2021-11-11T01:00:00,1500.0,42.79,6.0312,0.027,-0.03,-0.005,51.0,50.0,51.0,12.7,1504.1,141.8,-0.1,-0.1,1472.859,13.13,0.04,138.0
07,2021-11-11T01:30:00,1500.0,42.79,6.0312,0.035,-0.023,0.009,50.0,49.0,50.0,12.7,1504.1,148.3,0.1,-0.4,1472.855,13.13,0.041,123.3
07,2021-11-11T02:00:00,1500.0,42.79,6.0312,0.026,-0.028,0.002,50.0,51.0,49.0,12.7,1504.1,145.4,0.1,-0.5,1472.852,13.13,0.038,137.1
07,2021-11-11T02:30:00,1500.0,42.79,6.0312,0.023,-0.043,0.017,49.0,50.0,49.0,12.7,1504.1,144.5,-0.3,-0.2,1472.871,13.13,0.048,151.9
07,2021-11-11T03:00:00,1500.0,42.79,6.0312,0.029,-0.029,-0.005,51.0,50.0,51.0,12.7,1504.1,146.1,0.0,-0.3,1472.838,13.12,0.041,135.0
07,2021-11-11T03:30:00,1500.0,42.79,6.0312,0.019,-0.038,0.007,51.0,51.0,50.0,12.7,1504.1,141.5,-0.2,-0.1,1472.821,13.12,0.042,153.4
07,2021-11-11T04:00:00,1500.0,42.79,6.0312,0.033,-0.035,-0.003,48.0,49.0,52.0,12.7,1504.1,150.9,-0.2,-0.2,1472.818,13.12,0.048,136.7
07,2021-11-11T04:30:00,1500.0,42.79,6.0312,0.023,-0.038,-0.015,49.0,49.0,50.0,12.7,1504.1,145.0,-0.2,-0.4,1472.844,13.12,0.044,148.8
07,2021-11-11T05:00:00,1500.0,42.79,6.0312,0.012,-0.032,-0.006,49.0,49.0,49.0,12.7,1504.1,157.9,0.0,-0.1,1472.838,13.12,0.034,159.4
07,2021-11-11T05:30:00,1500.0,42.79,6.0312,0.019,-0.038,-0.012,49.0,49.0,48.0,12.7,1504.1,161.3,0.0,-0.4,1472.805,13.12,0.042,153.4
07,2021-11-11T06:00:00,1500.0,42.79,6.0312,0.031,-0.041,0.009,51.0,50.0,49.0,12.7,1504.1,153.6,-0.1,-0.3,1472.814,13.13,0.051,142.9
07,2021-11-11T06:30:00,1500.0,42.79,6.0312,0.022,-0.035,0.001,50.0,48.0,50.0,12.7,1504.1,142.0,0.0,-0.4,1472.785,13.13,0.041,147.8
07,2021-11-11T07:00:00,1500.0,42.79,6.0312,0.033,-0.042,-0.003,49.0,51.0,51.0,12.7,1504.1,127.5,0.0,-0.3,1472.813,13.13,0.053,141.8
07,2021-11-11T07:30:00,1500.0,42.79,6.0312,0.025,-0.034,-0.003,50.0,50.0,51.0,12.7,1504.1,146.9,-0.3,-0.4,1472.828,13.13,0.042,143.7
07,2021-11-11T08:00:00,1500.0,42.79,6.0312,0.019,-0.047,0.004,49.0,50.0,50.0,12.7,1504.1,152.9,-0.2,-0.4,1472.822,13.13,0.05,158.0
07,2021-11-11T08:30:00,1500.0,42.79,6.0312,0.013,-0.042,-0.002,49.0,50.0,51.0,12.7,1504.1,150.1,-0.2,-0.3,1472.877,13.13,0.043,162.8
07,2021-11-11T09:00:00,1500.0,42.79,6.0312,0.012,-0.038,-0.007,50.0,51.0,51.0,12.7,1504.1,140.3,0.0,-0.4,1472.87,13.13,0.039,162.5
07,2021-11-11T09:30:00,1500.0,42.79,6.0312,0.017,-0.03,-0.001,50.0,50.0,50.0,12.6,1504.1,136.3,-0.2,-0.3,1472.864,13.13,0.034,150.5
07,2021-11-11T10:00:00,1500.0,42.79,6.0312,0.024,-0.025,-0.001,53.0,51.0,52.0,12.7,1504.2,148.8,0.0,-0.1,1472.924,13.14,0.034,136.2
07,2021-11-11T10:30:00,1500.0,42.79,6.0312,0.016,-0.038,0.015,50.0,51.0,50.0,12.6,1504.1,145.0,-0.3,-0.3,1472.949,13.13,0.041,157.2
07,2021-11-11T11:00:00,1500.0,42.79,6.0312,0.009,-0.035,0.002,48.0,50.0,49.0,12.7,1504.1,141.3,0.0,-0.3,1472.942,13.13,0.036,165.6
07,2021-11-11T11:30:00,1500.0,42.79,6.0312,0.03,-0.036,-0.002,49.0,49.0,49.0,12.7,1504.1,136.5,0.0,-0.1,1472.962,13.13,0.046,140.2
07,2021-11-11T12:00:00,1500.0,42.79,6.0312,0.019,-0.023,0.019,49.0,48.0,52.0,12.7,1504.1,139.0,-0.3,-0.3,1472.964,13.13,0.029,140.4
07,2021-11-11T12:30:00,1500.0,42.79,6.0312,0.027,-0.031,0.009,50.0,50.0,50.0,12.7,1504.1,141.3,-0.3,0.0,1472.96,13.13,0.041,138.9
07,2021-11-11T13:00:00,1500.0,42.79,6.0312,0.021,-0.027,0.006,49.0,52.0,50.0,12.7,1504.1,141.6,-0.1,-0.1,1472.988,13.13,0.034,142.1
07,2021-11-11T13:30:00,1500.0,42.79,6.0312,0.03,-0.037,0.008,49.0,49.0,50.0,12.7,1504.1,150.1,-0.1,-0.2,1472.975,13.13,0.047,141.0
07,2021-11-11T14:00:00,1500.0,42.79,6.0312,0.019,-0.033,0.016,50.0,50.0,49.0,12.7,1504.1,152.6,-0.1,-0.2,1472.957,13.13,0.038,150.1
07,2021-11-11T14:30:00,1500.0,42.79,6.0312,0.015,-0.054,-0.002,49.0,52.0,50.0,12.7,1504.1,173.6,-0.2,-0.4,1472.989,13.13,0.056,164.5
07,2021-11-11T15:00:00,1500.0,42.79,6.0312,0.013,-0.061,0.005,49.0,51.0,50.0,12.7,1504.1,169.8,-0.4,-0.2,1472.981,13.13,0.062,168.0
07,2021-11-11T15:30:00,1500.0,42.79,6.0312,0.033,-0.035,-0.004,49.0,50.0,50.0,12.7,1504.1,155.0,-0.2,-0.1,1472.95,13.13,0.048,136.7
07,2021-11-11T16:00:00,1500.0,42.79,6.0312,0.013,-0.056,-0.008,49.0,49.0,48.0,12.7,1504.1,175.3,-0.2,-0.1,1472.936,13.13,0.057,166.9
07,2021-11-11T16:30:00,1500.0,42.79,6.0312,0.027,-0.041,-0.018,49.0,49.0,50.0,12.7,1504.1,158.0,-0.1,0.0,1472.922,13.13,0.049,146.6
07,2021-11-11T17:00:00,1500.0,42.79,6.0312,0.022,-0.051,-0.003,49.0,49.0,48.0,12.7,1504.1,167.0,-0.1,-0.3,1472.896,13.13,0.055,156.7
07,2021-11-11T17:30:00,1500.0,42.79,6.0312,0.024,-0.04,-0.003,50.0,50.0,50.0,12.7,1504.1,166.0,-0.1,-0.3,1472.919,13.13,0.046,149.0
07,2021-11-11T18:00:00,1500.0,42.79,6.0312,0.009,-0.037,-0.001,49.0,51.0,49.0,12.7,1504.1,168.6,-0.2,0.0,1472.872,13.13,0.038,166.3
07,2021-11-11T18:30:00,1500.0,42.79,6.0312,0.033,-0.046,0.001,50.0,50.0,49.0,12.7,1504.1,163.8,-0.1,0.0,1472.869,13.13,0.056,144.3
07,2021-11-11T19:00:00,1500.0,42.79,6.0312,0.016,-0.04,0.003,52.0,51.0,52.0,12.6,1504.1,175.6,0.2,-0.4,1472.816,13.13,0.043,158.2
07,2021-11-11T19:30:00,1500.0,42.79,6.0312,0.018,-0.042,-0.01,51.0,50.0,49.0,12.7,1504.1,170.0,0.0,-0.2,1472.833,13.13,0.045,156.8
07,2021-11-11T20:00:00,1500.0,42.79,6.0312,0.035,-0.045,0.009,49.0,51.0,49.0,12.7,1504.1,165.3,-0.2,-0.4,1472.797,13.13,0.057,142.1
07,2021-11-11T20:30:00,1500.0,42.79,6.0312,0.024,-0.057,-0.006,50.0,51.0,50.0,12.7,1504.1,155.0,0.0,-0.4,1472.805,13.13,0.061,157.2
07,2021-11-11T21:00:00,1500.0,42.79,6.0312,0.013,-0.057,0.0,49.0,51.0,49.0,12.7,1504.2,173.1,-0.3,-0.3,1472.83,13.14,0.058,167.2
